Location: Hamilton Branch State Park
(33.7552°N, 82.2209°W)
Time: 23:52:53
(UTC-04:00)

Hubble Space Telescope - Pass Details

Date: 22 September 2019
Orbit: 536 x 540 km, 28.5° (Epoch: 19 October)

Event Time Altitude Azimuth Distance (km) Brightness Sun altitude
Exits shadow 05:02:20 13° 136° (SE) 1,583 3.4 -28.1°
Drops below altitude 10° 05:02:55 10° 131° (SE) 1,776 3.7 -28.0°
Sets 05:05:23 0° 120° (ESE) 2,666 4.8 -27.6°
